FW7308 Weather Reports


time (UTC)temp
C
wind
direction
speed
KPH
gust
KPH
rain 1hr
cm
rain 24hr
cm
rain mn
cm
humidity
%
barometer
mb
20260510161118 14 70 3.2 4.8 0.00 0.00 0.03 92 1013.7
20260510160620 14 226 6.4 9.7 0.00 0.00 0.03 92 1014.0
20260510160119 14 129 9.7 14.5 0.00 0.00 0.03 91 1014.0
20260510155617 14 94 4.8 9.7 0.00 0.00 0.03 92 1013.7
20260510155116 13 320 1.6 3.2 0.00 0.00 0.03 94 1014.0
20260510154615 13 347 1.6 1.6 0.00 0.00 0.03 96 1014.0
20260510154116 12 109 4.8 8.0 0.00 0.00 0.03 96 1014.0
20260510153645 12 138 6.4 9.7 0.00 0.00 0.03 96 1014.0
20260510153145 12 322 3.2 3.2 0.00 0.00 0.03 97 1014.0
20260510152644 12 134 4.8 9.7 0.00 0.00 0.03 97 1014.0
20260510152145 12 210 6.4 12.9 0.00 0.00 0.03 98 1013.7
20260510151644 12 40 4.8 8.0 0.00 0.00 0.03 99 1013.7
20260510151143 11 23 3.2 4.8 0.00 0.00 0.03 99 1013.3
20260510150643 11 148 9.7 14.5 0.00 0.00 0.03 99 1013.5
20260510150144 11 98 4.8 9.7 0.00 0.00 0.03 99 1013.3
20260510145643 11 96 4.8 8.0 0.00 0.00 0.03 99 1013.3
20260510145142 11 77 6.4 8.0 0.00 0.00 0.03 99 1013.7
20260510144647 10 81 4.8 8.0 0.00 0.00 0.03 99 1013.7
20260510144145 10 125 4.8 8.0 0.00 0.00 0.03 99 1013.7
20260510143642 10 93 4.8 9.7 0.00 0.00 0.03 99 1013.5
20260510143141 10 29 1.6 4.8 0.00 0.00 0.03 99 1013.7
20260510142640 10 97 6.4 9.7 0.00 0.00 0.03 99 1013.7
20260510142140 10 138 8.0 12.9 0.00 0.00 0.03 99 1013.7
20260510141641 10 177 3.2 4.8 0.00 0.00 0.03 99 1013.7
20260510141140 10 128 6.4 12.9 0.00 0.00 0.03 99 1013.3
20260510140639 10 265 4.8 4.8 0.00 0.00 0.03 99 1013.3
20260510140140 10 166 6.4 8.0 0.00 0.00 0.03 99 1013.5
20260510135639 10 149 8.0 9.7 0.00 0.00 0.03 99 1013.3
20260510135140 10 112 6.4 8.0 0.00 0.00 0.03 99 1013.3
20260510134639 10 18 3.2 4.8 0.00 0.00 0.03 99 1013.7
20260510134138 10 203 4.8 8.0 0.00 0.00 0.03 99 1013.3
20260510133739 10 141 4.8 8.0 0.00 0.00 0.03 99 1013.3
20260510133137 10 133 9.7 14.5 0.00 0.00 0.03 99 1013.7
20260510132638 10 324 1.6 1.6 0.00 0.00 0.03 99 1013.7
20260510132137 10 110 8.0 9.7 0.00 0.00 0.03 99 1013.7
20260510131636 10 129 8.0 11.3 0.00 0.00 0.03 99 1013.7
20260510131135 10 145 4.8 8.0 0.00 0.00 0.03 99 1013.7
20260510130137 10 209 8.0 11.3 0.00 0.00 0.03 99 1013.5
20260510125635 10 201 8.0 9.7 0.00 0.00 0.03 99 1013.3
20260510125134 9 163 11.3 14.5 0.00 0.00 0.03 99 1013.3
20260510124635 9 170 6.4 9.7 0.00 0.00 0.03 99 1013.3
20260510124236 10 147 9.7 12.9 0.00 0.00 0.03 99 1013.5
20260510123634 9 158 8.0 9.7 0.00 0.00 0.03 99 1013.7
20260510123133 9 270 4.8 8.0 0.00 0.00 0.03 99 1013.3
20260510122732 9 165 9.7 14.5 0.00 0.00 0.03 99 1013.3
20260510122134 9 114 6.4 9.7 0.00 0.00 0.03 99 1013.3
20260510121132 9 158 8.0 11.3 0.00 0.00 0.03 99 1013.3
20260510120631 9 163 6.4 8.0 0.00 0.00 0.03 99 1013.3
20260510120134 9 163 9.7 11.3 0.00 0.00 0.03 99 1013.3
20260510115631 9 144 8.0 12.9 0.00 0.00 0.03 99 1013.3
20260510115131 8 220 6.4 9.7 0.00 0.00 0.03 99 1013.3
20260510114131 8 37 3.2 4.8 0.00 0.00 0.03 99 1013.3
20260510113631 8 22 3.2 4.8 0.00 0.00 0.03 99 1013.3
20260510113132 8 136 6.4 11.3 0.00 0.00 0.03 99 1013.3
20260510112733 8 104 4.8 9.7 0.00 0.00 0.03 99 1013.3
20260510112129 8 143 8.0 9.7 0.00 0.00 0.03 99 1013.3
20260510111628 8 29 3.2 4.8 0.00 0.00 0.03 99 1013.3
20260510111130 8 102 4.8 9.7 0.00 0.00 0.03 99 1013.1
20260510110627 8 109 4.8 8.0 0.00 0.00 0.03 99 1013.0
20260510110130 8 317 4.8 8.0 0.00 0.00 0.03 99 1013.0
20260510105627 8 200 8.0 11.3 0.00 0.00 0.03 99 1013.0
20260510105127 8 115 14.5 14.5 0.00 0.00 0.03 99 1012.6
20260510104629 8 316 4.8 4.8 0.00 0.00 0.03 99 1012.6
20260510104127 8 312 3.2 3.2 0.00 0.00 0.03 99 1012.6
20260510103626 8 150 8.0 11.3 0.00 0.00 0.03 99 1012.6
20260510103128 8 62 4.8 4.8 0.00 0.00 0.03 99 1012.6
20260510102626 8 239 4.8 8.0 0.00 0.00 0.03 99 1012.3
20260510102126 8 154 4.8 9.7 0.00 0.00 0.03 99 1012.3
20260510101626 8 349 3.2 9.7 0.00 0.00 0.03 99 1012.3
20260510101124 8 164 9.7 17.7 0.00 0.00 0.03 99 1011.9
20260510100623 8 238 6.4 11.3 0.00 0.00 0.03 99 1011.7
20260510100225 8 124 8.0 14.5 0.00 0.00 0.03 99 1011.6
20260510095625 8 28 4.8 8.0 0.00 0.00 0.03 99 1011.9
20260510095223 8 158 8.0 11.3 0.00 0.00 0.03 99 1011.6
20260510094622 8 163 8.0 11.3 0.00 0.00 0.03 99 1011.6
20260510094121 8 282 6.4 9.7 0.00 0.00 0.03 99 1011.6
20260510093622 8 135 4.8 8.0 0.00 0.00 0.03 99 1011.7
20260510093123 8 186 6.4 9.7 0.00 0.00 0.03 99 1011.7
20260510092622 8 140 9.7 11.3 0.00 0.00 0.03 99 1011.6
20260510092120 8 296 3.2 4.8 0.00 0.00 0.03 99 1011.6
20260510091621 8 136 6.4 8.0 0.00 0.00 0.03 99 1011.4
20260510091120 8 215 6.4 12.9 0.00 0.00 0.03 99 1011.6
20260510090619 8 156 3.2 9.7 0.00 0.00 0.03 99 1011.6
20260510090121 8 5 3.2 4.8 0.00 0.00 0.03 99 1011.6
20260510085119 8 185 9.7 12.9 0.00 0.00 0.03 99 1011.2
20260510084620 8 42 3.2 8.0 0.00 0.00 0.03 99 1011.6
20260510084117 8 118 4.8 9.7 0.00 0.00 0.03 99 1011.9
20260510083616 8 135 6.4 11.3 0.00 0.00 0.03 99 1011.9
20260510083118 8 319 1.6 4.8 0.00 0.00 0.03 99 1011.9
20260510082617 8 343 0.0 1.6 0.00 0.00 0.03 99 1011.9
20260510082118 8 227 4.8 4.8 0.00 0.00 0.03 99 1012.3
20260510081617 8 123 4.8 8.0 0.00 0.00 0.03 99 1012.3
20260510081145 8 58 4.8 8.0 0.00 0.00 0.03 99 1012.3
20260510080646 8 107 6.4 8.0 0.00 0.00 0.03 99 1011.9
20260510080145 8 8 3.2 4.8 0.00 0.00 0.03 99 1011.9
20260510075645 8 8 1.6 3.2 0.00 0.00 0.03 99 1011.9
20260510075144 8 340 3.2 3.2 0.00 0.00 0.03 99 1012.3
20260510074645 8 354 3.2 3.2 0.00 0.00 0.03 99 1012.3
20260510074144 8 21 3.2 4.8 0.00 0.00 0.03 99 1011.9
20260510073744 8 39 4.8 8.0 0.00 0.00 0.03 99 1011.9
20260510073143 8 306 3.2 3.2 0.00 0.00 0.03 99 1011.9
20260510072644 8 28 3.2 4.8 0.00 0.00 0.03 99 1011.9
20260510072143 8 314 1.6 3.2 0.00 0.00 0.03 99 1011.9
20260510071642 8 204 1.6 3.2 0.00 0.00 0.03 99 1011.9
20260510071144 8 316 0.0 1.6 0.00 0.00 0.03 99 1011.9
20260510070141 8 2 3.2 3.2 0.00 0.00 0.03 99 1011.6
20260510065741 8 325 3.2 4.8 0.00 0.00 0.03 99 1011.9
20260510065140 8 330 1.6 1.6 0.00 0.00 0.03 99 1011.9
20260510064741 8 17 3.2 4.8 0.00 0.00 0.03 99 1011.9
20260510063639 8 359 1.6 3.2 0.00 0.00 0.03 99 1011.7
20260510063138 8 5 4.8 4.8 0.00 0.00 0.03 99 1011.9
20260510062639 8 7 3.2 3.2 0.00 0.00 0.03 99 1011.9
20260510062139 8 261 4.8 8.0 0.00 0.00 0.03 99 1011.9
20260510061638 8 352 1.6 1.6 0.00 0.00 0.03 99 1012.1
20260510061137 8 297 1.6 3.2 0.00 0.00 0.03 99 1011.9
20260510060636 8 28 3.2 3.2 0.00 0.00 0.03 99 1011.9
20260510060137 8 210 3.2 8.0 0.00 0.00 0.03 99 1011.9
20260510055638 8 331 3.2 3.2 0.00 0.00 0.03 99 1012.3
20260510055136 8 332 3.2 4.8 0.00 0.00 0.03 99 1011.9
20260510054637 8 356 1.6 3.2 0.00 0.00 0.03 99 1011.9
20260510054136 8 20 3.2 3.2 0.00 0.00 0.03 99 1011.9
20260510053635 8 2 1.6 3.2 0.00 0.00 0.03 99 1011.9
20260510053137 8 0.0 0.0 0.00 0.00 0.03 99 1012.3
20260510052635 8 0.0 0.0 0.00 0.00 0.03 99 1011.9
20260510052237 8 0.0 0.0 0.00 0.00 0.03 99 1012.3
20260510051634 8 0.0 0.0 0.00 0.00 0.03 99 1012.3
20260510051133 8 0.0 0.0 0.00 0.00 0.03 99 1012.3
20260510050632 8 347 0.0 1.6 0.00 0.00 0.03 99 1012.3
20260510050234 8 337 1.6 3.2 0.00 0.00 0.03 99 1012.3
20260510045636 8 356 0.0 1.6 0.00 0.00 0.03 99 1012.1
20260510045132 8 348 1.6 1.6 0.00 0.00 0.03 99 1012.3
20260510044631 8 14 1.6 3.2 0.00 0.00 0.03 99 1012.3
20260510044132 8 348 1.6 1.6 0.00 0.00 0.03 99 1012.4
20260510043632 8 351 1.6 1.6 0.00 0.00 0.03 99 1012.3
20260510043131 8 354 1.6 1.6 0.00 0.00 0.03 99 1012.3
20260510042630 8 41 3.2 4.8 0.00 0.00 0.00 99 1012.6
20260510042129 8 334 1.6 3.2 0.00 0.00 0.00 99 1012.3
20260510041630 8 16 3.2 3.2 0.00 0.00 0.00 99 1012.3
20260510041130 8 358 1.6 3.2 0.00 0.00 0.00 99 1012.6
20260510040629 8 347 1.6 1.6 0.00 0.00 0.00 99 1012.3
20260510040128 8 350 1.6 1.6 0.00 0.00 0.00 99 1012.3
20260510035730 8 35 3.2 4.8 0.00 0.00 1.22 99 1012.3
20260510035128 8 18 3.2 4.8 0.00 0.00 1.22 99 1012.6
20260510034628 8 11 1.6 3.2 0.00 0.00 1.22 99 1012.4
20260510034127 8 30 4.8 4.8 0.00 0.00 1.22 99 1012.6
20260510033628 8 81 6.4 8.0 0.00 0.00 1.22 99 1012.3
20260510033127 8 357 1.6 1.6 0.00 0.00 1.22 99 1012.6
20260510032626 8 31 3.2 4.8 0.00 0.00 1.22 99 1012.3
20260510032125 8 360 1.6 3.2 0.00 0.00 1.22 99 1012.3
20260510031625 8 302 3.2 4.8 0.00 0.00 1.22 99 1012.3
20260510031126 8 340 1.6 1.6 0.00 0.00 1.22 99 1012.6
20260510030625 8 51 4.8 4.8 0.00 0.00 1.22 99 1012.3
20260510030124 8 354 1.6 1.6 0.00 0.00 1.22 99 1012.6
20260510025625 8 341 1.6 1.6 0.00 0.00 1.22 99 1012.4
20260510025126 8 287 3.2 4.8 0.00 0.00 1.22 99 1012.3
20260510024626 8 63 3.2 4.8 0.00 0.00 1.22 99 1012.3
20260510023625 8 48 3.2 4.8 0.00 0.00 1.22 99 1012.6
20260510023124 8 32 3.2 3.2 0.00 0.00 1.22 99 1012.6
20260510022623 8 351 1.6 1.6 0.00 0.00 1.22 99 1013.0
20260510022122 8 14 3.2 4.8 0.00 0.00 1.22 99 1013.0
20260510021623 8 346 1.6 3.2 0.00 0.00 1.22 99 1013.0
20260510021122 8 15 3.2 4.8 0.00 0.00 1.22 99 1013.0
20260510020120 8 360 1.6 3.2 0.00 0.00 1.22 99 1013.0
20260510015622 8 345 1.6 1.6 0.00 0.00 1.22 99 1013.0
20260510015121 8 349 1.6 1.6 0.00 0.00 1.22 99 1013.0
20260510014620 8 347 1.6 1.6 0.00 0.00 1.22 99 1013.0
20260510013619 8 358 3.2 3.2 0.00 0.00 1.22 99 1013.0
20260510013120 8 350 1.6 1.6 0.00 0.00 1.22 99 1013.0
20260510012619 8 348 3.2 3.2 0.00 0.00 1.22 99 1013.0
20260510012118 8 65 4.8 9.7 0.00 0.00 1.22 99 1012.6
20260510011619 8 20 3.2 4.8 0.00 0.00 1.22 99 1013.0
20260510011118 8 356 1.6 1.6 0.00 0.00 1.22 99 1012.6
20260510010618 8 326 0.0 1.6 0.00 0.00 1.22 99 1013.0
20260510010220 8 326 3.2 3.2 0.00 0.00 1.22 99 1012.6
20260510005616 8 345 1.6 1.6 0.00 0.00 1.22 99 1012.6
20260510004646 8 342 1.6 3.2 0.00 0.00 1.22 99 1012.6
20260510004146 8 5 3.2 3.2 0.00 0.00 1.22 99 1012.6
20260510003646 8 46 3.2 4.8 0.00 0.00 1.22 99 1012.6
20260510003144 8 202 4.8 4.8 0.00 0.00 1.22 99 1012.6
20260510002647 8 349 1.6 3.2 0.00 0.00 1.22 99 1012.4
20260510002144 8 349 1.6 1.6 0.00 0.00 1.22 99 1012.3
20260510001643 8 128 6.4 8.0 0.00 0.00 1.22 99 1012.3
20260510001143 8 42 3.2 4.8 0.00 0.00 1.22 99 1012.3
20260510000645 8 193 6.4 9.7 0.00 0.00 1.22 99 1012.6
20260510000143 8 135 6.4 8.0 0.00 0.00 1.22 99 1012.3
20260509235644 8 294 3.2 4.8 0.00 0.00 1.22 99 1012.3
20260509235143 8 96 3.2 8.0 0.00 0.00 1.22 99 1012.3
20260509234646 7 48 3.2 4.8 0.00 0.00 1.22 99 1012.3
20260509234142 7 264 4.8 4.8 0.00 0.00 1.22 99 1012.3
20260509233641 7 303 1.6 3.2 0.00 0.00 1.22 99 1012.3
20260509233145 7 55 3.2 4.8 0.00 0.00 1.22 99 1012.3
20260509232646 7 6 3.2 3.2 0.00 0.00 1.22 99 1012.3
20260509232141 7 32 3.2 4.8 0.00 0.00 1.22 99 1012.3
20260509231640 7 34 3.2 4.8 0.00 0.00 1.22 99 1011.9
20260509230640 7 26 1.6 3.2 0.00 0.00 1.22 99 1012.3
20260509230241 7 341 3.2 4.8 0.00 0.00 1.22 99 1012.3
20260509225638 7 235 4.8 8.0 0.00 0.00 1.22 99 1012.3
20260509224657 7 89 4.8 9.7 0.00 0.00 1.22 99 1012.3
20260509223136 7 23 3.2 3.2 0.00 0.00 1.22 99 1012.3
20260509222638 7 319 1.6 3.2 0.00 0.00 1.22 99 1012.3
20260509222137 7 14 3.2 4.8 0.00 0.00 1.22 99 1012.3
20260509221135 7 342 1.6 3.2 0.00 0.00 1.22 99 1012.3
20260509220636 7 308 3.2 4.8 0.00 0.00 1.22 99 1012.3
20260509220135 7 99 6.4 11.3 0.00 0.00 1.22 99 1012.3
20260509215737 7 344 1.6 3.2 0.00 0.00 1.22 99 1012.3
20260509215134 7 134 6.4 11.3 0.00 0.00 1.22 99 1012.3
20260509214633 7 79 4.8 8.0 0.00 0.00 1.22 99 1012.4
20260509214134 7 140 6.4 9.7 0.00 0.00 1.22 99 1012.6
20260509213635 7 138 6.4 9.7 0.00 0.00 1.22 99 1012.6
20260509213133 7 88 4.8 8.0 0.00 0.00 1.22 99 1012.6
20260509212632 7 323 3.2 4.8 0.00 0.00 1.22 99 1012.6
20260509212134 7 304 3.2 4.8 0.00 0.00 1.22 99 1012.6
20260509211632 7 66 3.2 4.8 0.00 0.00 1.22 99 1012.8
20260509211131 7 257 3.2 3.2 0.00 0.00 1.22 99 1012.6
20260509210632 7 31 3.2 4.8 0.00 0.00 1.22 99 1012.6
20260509210132 7 63 4.8 4.8 0.00 0.00 1.22 99 1013.0
20260509205631 7 158 6.4 9.7 0.00 0.00 1.22 99 1013.0
20260509205130 7 113 4.8 8.0 0.00 0.00 1.22 99 1013.0
20260509204629 7 354 3.2 3.2 0.00 0.00 1.22 99 1013.0
20260509204130 7 55 3.2 4.8 0.00 0.00 1.22 99 1013.0
20260509203630 7 50 4.8 8.0 0.00 0.00 1.22 99 1013.3
20260509203129 7 169 6.4 8.0 0.00 0.00 1.19 99 1013.1
20260509202628 7 134 6.4 9.7 0.00 0.00 1.19 99 1013.3
20260509202132 7 166 9.7 11.3 0.00 0.00 1.17 99 1013.0
20260509201629 7 91 4.8 4.8 0.00 0.00 1.17 99 1013.0
20260509201128 7 169 8.0 11.3 0.00 0.00 1.17 99 1013.0
20260509200627 6 150 8.0 11.3 0.00 0.00 1.17 99 1013.0
20260509200126 7 22 3.2 4.8 0.00 0.00 1.14 99 1013.0
20260509195727 6 195 6.4 11.3 0.00 0.00 1.14 99 1013.0
20260509195127 6 112 4.8 8.0 0.00 0.00 1.14 99 1013.0
20260509194125 6 178 6.4 9.7 0.00 0.00 1.12 99 1013.1
20260509193626 6 32 4.8 4.8 0.00 0.00 1.09 99 1013.3
20260509193125 6 146 4.8 8.0 0.00 0.00 1.09 99 1013.3
20260509192624 6 152 6.4 8.0 0.00 0.00 1.07 99 1013.3
20260509192225 6 51 3.2 4.8 0.00 0.00 1.07 99 1013.3
20260509191624 6 147 6.4 9.7 0.00 0.00 1.04 99 1013.3
20260509191123 6 52 3.2 4.8 0.00 0.00 1.02 99 1013.7
20260509190622 6 131 8.0 11.3 0.00 0.00 0.99 99 1013.7
20260509190123 6 177 8.0 11.3 0.00 0.00 0.97 99 1013.7
20260509185622 6 131 8.0 12.9 0.00 0.00 0.97 99 1013.7
20260509184724 6 151 8.0 9.7 0.00 0.00 0.91 99 1013.7
20260509184122 6 120 6.4 8.0 0.00 0.00 0.89 99 1013.7
20260509183621 6 134 6.4 11.3 0.00 0.00 0.86 99 1013.7
20260509182622 6 209 4.8 8.0 0.00 0.00 0.84 99 1014.0
20260509182121 6 301 3.2 4.8 0.00 0.00 0.81 99 1014.0
20260509181620 6 125 8.0 11.3 0.00 0.00 0.81 99 1014.0
20260509181121 6 151 9.7 11.3 0.00 0.00 0.79 99 1014.0
20260509180618 6 143 6.4 9.7 0.00 0.00 0.79 99 1014.0
20260509180119 6 136 4.8 8.0 0.00 0.00 0.76 99 1014.0
20260509175619 6 152 8.0 11.3 0.00 0.00 0.74 99 1014.0
20260509175118 6 142 6.4 9.7 0.00 0.00 0.74 99 1014.2
20260509174622 6 155 8.0 12.9 0.00 0.00 0.71 99 1014.0
20260509174219 6 124 8.0 11.3 0.00 0.00 0.71 99 1014.0
20260509173618 6 189 8.0 11.3 0.00 0.00 0.69 99 1014.2
20260509173117 6 164 6.4 9.7 0.00 0.00 0.66 99 1014.2
20260509172118 6 298 4.8 4.8 0.00 0.00 0.64 99 1014.0
20260509171617 6 147 6.4 9.7 0.00 0.00 0.61 99 1014.4
20260509171116 6 102 4.8 8.0 0.00 0.00 0.58 99 1014.4
20260509170645 6 140 6.4 9.7 0.00 0.00 0.56 99 1014.4
20260509170147 6 129 4.8 8.0 0.00 0.00 0.53 99 1014.4